This is the latest recevied weather packets stored in our database for station/object W0VI. If no packets are shown the sender has not sent any weather packets the latest 10 day(s).
| Time | Temp. | Humidity | Pressure | Rain* | Wind** | Luminosity | Snow |
|---|---|---|---|---|---|---|---|
| 1787412212 | 21.67° C | 68% | 1020.2 hPa | 0 mm | - | 565 W/m² | - |
| 1787411909 | 22.22° C | 68% | 1020.2 hPa | 0 mm | - | 547 W/m² | - |
| 1787411605 | 21.67° C | 69% | 1020.3 hPa | 0 mm | - | 537 W/m² | - |
| 1787411300 | 21.67° C | 71% | 1020 hPa | 0 mm | - | 514 W/m² | - |
| 1787410996 | 21.67° C | 70% | 1020 hPa | 0 mm | - | 482 W/m² | - |
| 1787410692 | 21.67° C | 73% | 1020 hPa | 0 mm | - | 466 W/m² | - |
| 1787410388 | 21.11° C | 74% | 1019.9 hPa | 0 mm | - | 433 W/m² | - |
| 1787410082 | 21.11° C | 75% | 1019.9 hPa | 0 mm | - | 418 W/m² | - |
| 1787409779 | 21.11° C | 77% | 1019.7 hPa | 0 mm | - | 397 W/m² | - |
| 1787409478 | 20.56° C | 78% | 1020 hPa | 0 mm | - | 386 W/m² | - |
| 1787409169 | 20.56° C | 80% | 1020 hPa | 0 mm | - | 379 W/m² | - |
| 1787408864 | 20.56° C | 80% | 1019.9 hPa | 0 mm | - | 350 W/m² | - |
| 1787408560 | 20.56° C | 80% | 1019.9 hPa | 0 mm | - | 324 W/m² | - |
| 1787408255 | 20° C | 82% | 1019.9 hPa | 0 mm | - | 323 W/m² | - |
| 1787407951 | 20° C | 82% | 1020 hPa | 0 mm | - | 291 W/m² | - |
| 1787407646 | 20° C | 82% | 1019.7 hPa | 0 mm | - | 275 W/m² | - |
| 1787407341 | 19.44° C | 85% | 1019.7 hPa | 0 mm | - | 285 W/m² | - |
| 1787407038 | 19.44° C | 85% | 1019.8 hPa | 0 mm | - | 278 W/m² | - |
| 1787406733 | 18.89° C | 87% | 1019.5 hPa | 0 mm | - | 243 W/m² | - |
| 1787406428 | 18.89° C | 88% | 1019.6 hPa | 0 mm | - | 238 W/m² | - |
| 1787406124 | 18.33° C | 89% | 1019.7 hPa | 0 mm | - | 206 W/m² | - |
| 1787405820 | 18.33° C | 90% | 1019.7 hPa | 0 mm | - | 157 W/m² | - |
| 1787405517 | 18.33° C | 91% | 1019.6 hPa | 0 mm | - | 129 W/m² | - |
| 1787405210 | 17.78° C | 92% | 1019.6 hPa | 0 mm | - | 124 W/m² | - |
| 1787404908 | 17.78° C | 93% | 1019.7 hPa | 0 mm | - | 226 W/m² | - |
* Rain latest hour (hover to see other rain measurements)
** Current wind speed in m/s (hover to see current wind gust speed)